sat.trackr.live / text

‹ back to catalog

STARLINK-31810

NORAD 59799 · 2024-093T

PAYLOAD ACTIVE UNKNOWN

§ Identity

Operator
Country
US
Launch date
2024-05-18
Launch site
AFETR
Launch vehicle
Mass (kg)
RCS (m²)

Purposes: comms

External: N2YO · Heavens-Above · Gunter

§ Orbital elements

Epoch: 2026-05-24T23:57:55.008576Z

Period
94.27 min
Inclination
43.0009°
Eccentricity
0.0000678
Mean motion
15.27557875 rev/d
Perigee alt
482.7 km
Apogee alt
483.6 km
Semi-major
6,861.3 km
B*
2.6452e-4
RAAN
138.1308°
Arg perigee
30.0595°
Mean anomaly
330.0295°
Rev number
11,436

§ Raw data

STARLINK-318101 59799U 24093T   26144.99855334  .00007019  00000+0  26452-3 0  99982 59799  43.0009 138.1308 0000678  30.0595 330.0295 15.27557875114363

JSON: /api/v1/satellites/59799 · /tle

For live sub-satellite position, see the globe view (requires WebGL).

§ Visibility from observer

Set your observer location to see the next 7 days of passes ≥ 10°. The values pass through the URL so the page stays shareable.

No JS? Fill the form by hand. The geolocation button needs JavaScript.